CAPE
4284 4801 4755 4731 4681 4870 4966 4977 4706 4486 4194 4111 4075 4177 4122 3626 3357 2804 2812 2727 2167 1835 1537 1336 1205 1007 612 697 611 684 812 606 767 836 882 957 1010 955 833 967 849 916 854 549 213 204 306 220 223 288 346 298 323 356 345 308 309 288 300 418 518 609 872 1174 1061 692 602 519 329 175 98 92 44 63 98 130 160 95 65 140 193 292 367 376 332
4337 4889 4900 4904 4766 4916 4888 5091 5036 4616 4528 4267 4312 4444 4352 3929 3630 3318 3146 2884 2203 1881 1596 1244 1165 1000 712 650 780 794 746 664 806 992 940 986 1044 939 836 1014 1004 961 876 426 366 357 297 438 370 448 453 393 367 412 418 320 203 181 224 214 246 347 628 544 426 487 545 489 338 374 208 127 103 151 92 96 134 165 131 100 114 176 202 157 152
4172 4838 4987 4983 5013 4947 4814 5071 5035 4793 4527 4569 4350 4368 4272 4083 3770 3500 3226 2802 2288 2016 1743 1252 1263 1164 829 799 798 940 967 846 836 918 910 1082 960 732 643 842 820 583 473 433 446 441 422 548 370 470 432 399 450 451 348 314 288 271 222 219 284 280 294 282 253 383 499 444 499 434 277 171 101 138 209 178 238 178 203 235 267 334 332 240 208
3795 4776 5109 4974 4956 5083 4917 4962 4945 4806 4405 4373 4319 4136 3952 3948 3779 3538 3177 2770 2412 2215 1848 1313 1300 1179 652 806 920 858 462 662 794 860 946 921 865 931 729 765 550 372 401 472 468 443 406 463 450 406 363 322 360 520 416 315 360 384 384 514 576 596 690 769 969 547 619 630 582 432 433 379 306 232 258 284 256 188 149 317 274 432 473 366 332
3493 4411 4978 4736 4740 5079 4976 4857 5046 4782 4484 4226 4216 3952 3635 3797 3664 3410 3189 2828 2636 2242 1836 1363 1400 1087 545 1110 1238 746 487 862 988 715 675 775 785 760 710 718 605 467 441 533 511 512 475 483 409 390 391 383 386 354 289 384 372 337 325 387 455 456 424 433 525 592 624 723 562 599 474 440 350 336 416 566 538 458 466 406 357 413 379 161 68
3136 4235 4771 4661 4917 5123 5156 4800 4890 4940 4532 4213 4068 3868 3531 3675 3564 3364 3215 2880 2629 2159 1762 1530 1411 950 852 1375 1154 620 512 943 1075 790 550 498 783 716 724 622 436 467 490 549 532 562 566 567 454 393 324 303 288 266 320 264 272 258 312 422 414 374 396 278 397 711 884 1118 1258 934 1133 1034 702 760 882 773 320 858 664 403 300 306 393 131 32
3552 3872 4705 4718 5060 5277 5298 5030 4822 4757 4757 4372 4106 3906 3420 3020 3162 3368 3113 2863 2619 2228 1810 1712 1274 1160 1123 1212 881 858 1204 1317 1023 888 504 563 768 763 521 502 464 462 454 422 463 460 441 500 540 485 449 363 287 275 346 415 412 458 501 484 408 414 451 566 667 1020 1002 1266 1095 916 806 858 1142 834 454 386 1194 856 509 278 244 341 268 156 222
3653 3812 4586 4945 5248 5403 5436 5430 5014 4882 4773 4590 4319 4100 3521 3035 3238 3466 3176 2855 2670 2364 2070 1732 1428 1506 1548 1106 859 1232 1374 1196 966 908 656 640 692 670 615 580 458 534 444 387 429 325 231 360 395 479 457 456 422 445 502 495 487 557 697 846 622 486 542 677 735 683 840 294 212 332 482 460 352 447 780 826 828 930 664 213 104 145 243 446 507
4058 3980 4570 5088 5421 5654 5756 5475 5139 5000 4766 4637 4448 4160 3840 3534 3475 3482 3280 2961 2612 2346 1879 1444 1424 1346 1177 875 703 1166 1265 818 629 730 414 552 586 576 844 710 527 441 471 508 374 131 462 388 370 447 498 652 649 576 439 502 744 625 631 500 609 591 561 679 736 581 468 238 226 265 154 172 322 481 449 466 303 719 548 240 384 408 328 327 662
4631 4398 4620 5119 5559 5678 5557 5020 4429 4446 4269 4290 4220 3616 3794 3438 3296 3365 3294 2999 2694 2309 1928 1586 1476 1314 719 607 789 1027 907 622 627 491 615 802 904 723 579 732 556 515 676 605 516 446 536 557 514 632 832 1079 1023 738 535 552 579 702 1040 888 939 872 843 744 615 383 168 115 126 114 111 76 72 117 138 359 490 624 468 652 444 298 432 436 330
4905 4784 4841 5187 5571 5725 5510 5030 4757 4736 4490 4074 4096 3844 3249 3408 3380 3317 2990 3034 2828 2632 2268 1786 1100 962 964 902 878 672 207 302 571 442 575 530 576 469 634 972 659 521 692 806 755 592 446 646 702 752 1273 1087 1186 904 804 718 714 614 454 287 319 783 585 511 476 203 75 65 92 143 161 114 91 158 143 56 54 175 352 161 132 276 292 254 296
5052 5118 5116 5422 5726 5618 5296 4809 4717 4622 4318 4148 4012 4054 3798 3438 3575 3511 3075 2818 2656 2346 1964 1846 1716 1605 1522 1322 984 642 480 502 380 293 243 156 565 714 330 660 496 683 661 623 715 637 474 712 795 829 718 1463 1715 2066 1130 773 790 859 767 486 172 58 32 451 402 295 184 171 172 195 218 190 223 256 243 52 248 358 402 364 367 274 234 323 353
5320 5486 5477 5702 5661 5378 5173 4589 4386 4542 4329 4111 4187 3913 3556 3791 3847 3474 3234 2986 2669 2030 2083 2097 2028 1883 1726 1553 1299 1033 626 523 451 475 71 127 168 112 195 176 609 588 392 519 755 813 998 878 906 821 1220 1134 1756 1694 1436 918 710 904 950 772 517 383 245 0 4 383 165 121 156 136 169 251 170 301 238 383 468 344 386 349 327 322 364 396 372
5776 5766 5931 5949 5819 5352 4918 3960 4378 4230 4294 4189 3980 3668 3415 3224 3306 2985 2822 2904 2938 2256 2053 2005 1894 1798 1700 1630 1300 1198 862 1088 776 471 302 208 188 284 274 102 225 201 390 521 791 1022 1136 1151 1495 1683 1744 1561 1204 1102 1231 898 945 592 576 962 1048 782 468 0 0 0 11 33 93 169 318 445 170 224 252 326 358 270 171 131 218 191 182 164 171
5838 5928 5788 5862 5665 5051 4128 3841 4498 4199 3861 3952 3822 3545 3419 3401 3171 2946 2610 2704 2868 2606 2050 1980 1778 1598 1482 1400 1326 1132 899 1017 796 473 406 364 300 286 247 63 249 370 520 562 929 1311 1266 1673 2045 2042 2041 1812 1440 1373 1184 870 701 610 555 468 282 136 182 38 409 501 320 126 186 344 517 378 240 148 185 235 141 31 28 28 12 8 9 38 52
6000 6016 6012 5800 5540 4801 4348 4078 3548 4166 3850 3636 3548 3332 3200 3312 3146 3030 2805 2568 2392 1953 1949 1854 1746 1609 1493 1408 1356 1408 1092 723 601 417 572 374 280 252 269 396 552 404 585 730 779 1264 1532 1909 2142 1810 1883 1592 1568 851 639 979 792 691 351 141 56 71 60 51 114 116 189 36 14 34 66 26 17 1 11 0 0 0 0 0 0 0 2 0 0
5847 5928 5915 5816 5351 4734 4297 3987 3684 3530 3696 3362 3304 3010 2964 2849 2804 2752 2434 2230 2060 1716 1840 1814 1702 1639 1652 1666 1524 1165 1075 795 715 589 465 333 282 296 340 276 709 532 667 931 1061 1361 1252 2104 1837 1652 1314 1076 1613 753 441 247 682 542 306 87 46 44 42 94 319 0 0 0 0 0 0 0 0 0 0 0 0 0 0 4 5 0 0 0 0
5658 5703 5582 5644 5161 4882 4492 4194 3734 3384 3609 3488 3016 2454 2642 2519 2372 2356 2112 1828 1633 1616 1616 1650 1588 1600 1585 1519 1376 1243 1151 902 660 483 367 322 327 430 653 790 913 625 654 846 1308 1229 1583 1307 1242 1157 863 1184 576 0 0 86 502 454 243 55 24 33 107 114 177 1098 10 0 0 0 0 0 0 0 0 0 0 0 2 22 7 0 0 0 0
5289 5268 5319 5329 5259 4893 4616 4077 3546 3184 3446 3151 2840 2607 2434 2410 2089 1910 1723 1572 1541 1541 1542 1561 1490 1325 1229 1073 976 866 751 614 605 554 420 357 341 482 813 749 676 591 851 1832 1576 1340 1156 867 771 540 542 1205 405 381 300 62 336 199 110 42 35 55 54 86 30 41 98 293 419 426 306 360 243 330 441 17 0 0 13 105 85 18 41 33 44
5182 5085 5223 5118 4710 4406 3964 3665 3469 3165 3017 2977 2823 2580 2301 2038 1676 1508 1516 1503 1452 1382 1325 1265 1305 1170 860 690 645 637 608 595 629 648 534 403 312 614 728 818 599 566 1574 1370 1307 1601 1091 968 684 468 514 450 357 0 0 1 4 7 54 58 57 70 323 344 217 92 60 9 3 4 2 2 2 8 24 43 232 712 271 425 596 259 117 203 0
5079 4860 4766 4423 4096 3777 3562 3375 3217 2886 2558 2781 2502 2210 2002 1678 1244 1228 1293 1222 1159 1085 1041 1030 978 800 591 556 506 480 476 458 1127 489 469 340 199 104 872 932 810 949 1846 1717 1689 1505 1185 1020 811 596 486 290 0 0 0 0 0 0 3 15 39 0 0 94 42 3 19 34 12 26 3 1 0 0 1 0 0 0 0 42 125 6 0 0 0
4724 4631 4372 3955 3638 3272 3230 3200 3007 2499 2656 2689 2389 2219 1986 1606 1188 1142 1198 1060 1100 967 721 649 606 576 566 500 401 537 518 459 2639 434 348 251 28 450 810 993 913 1283 1441 1158 1286 1082 936 811 881 1249 382 165 0 0 0 0 0 0 0 0 0 0 0 0 7 0 0 0 0 4 0 0 0 0 0 0 0 0 0 0 0 0 0 0 0
4318 4097 3872 3708 3363 3148 3049 2816 2622 2375 2580 2683 2370 2078 1694 1450 1148 1087 1052 976 808 626 594 509 465 521 490 824 963 1083 1399 1226 1530 780 684 693 714 686 535 1064 1156 1842 1402 1172 959 959 786 697 858 389 0 0 0 0 0 0 0 0 0 0 0 0 0 0 0 0 0 0 0 0 0 0 0 0 0 0 0 0 0 0 0 0 0 0 0
3797 3561 3412 3367 3202 3028 2702 2409 2328 2481 2420 2334 2135 1757 1490 1390 1099 1064 891 813 784 875 875 856 889 867 940 1148 1366 697 853 1054 1004 970 1007 968 952 897 585 560 1022 1033 878 906 974 818 806 908 424 260 179 28 0 0 0 0 0 0 0 0 0 0 0 0 0 0 1 0 0 0 0 0 0 0 0 0 0 0 0 0 0 0 0 3 1
3115 3065 3002 3088 2999 2687 2369 2118 2188 2334 2147 2118 1695 1504 1141 1269 997 1011 1021 1048 1003 899 898 1042 1075 994 1320 1138 992 751 817 813 973 972 935 836 815 658 412 470 672 702 481 764 490 500 424 376 320 262 139 0 0 0 0 0 0 0 0 0 0 0 0 0 0 0 4 0 0 0 0 0 0 0 0 0 0 0 0 0 0 0 0 0 0
2944 2820 2730 2607 2429 2216 2062 2135 2017 1961 1805 1781 1746 1458 1271 1179 1251 1237 1152 1158 1136 984 1071 914 970 1010 1074 948 830 816 1202 926 900 818 768 685 508 394 371 349 308 230 63 284 311 254 205 180 114 0 0 0 0 0 0 0 0 0 0 0 0 0 0 0 4 7 4 0 0 0 0 0 0 0 0 0 0 0 0 0 0 0 0 0 0
2618 2445 2420 2310 2138 2058 1947 2054 1875 1761 1546 1528 1666 1616 1392 1260 1266 1210 1189 1078 1056 1067 886 902 742 954 1022 934 918 1282 1162 900 679 606 543 160 0 51 38 0 0 174 252 208 176 163 150 82 0 0 0 0 0 0 0 0 0 0 0 0 0 0 0 4 4 3 1 0 0 0 0 0 0 0 0 0 0 0 0 0 0 0 0 0 0
2359 2192 2067 2053 2009 2102 1932 1756 1800 1565 1431 1264 1558 1414 1100 938 1183 1232 1164 1224 1210 998 903 1469 1011 844 1052 1118 1232 1133 884 1007 898 569 230 21 12 2 1 6 202 219 203 162 134 96 20 0 0 0 0 0 0 0 0 0 0 0 0 0 0 2 5 1 0 0 0 0 0 0 0 0 0 0 0 0 0 0 0 0 0 0 0 0 0
2283 2152 2031 1935 2063 2014 1776 1600 1666 1548 1455 1448 1351 1271 1295 1726 1356 1144 908 1032 1702 1077 1141 917 1054 1244 1142 806 879 1062 1010 861 903 420 783 428 87 28 45 105 200 203 192 96 164 236 40 24 60 22 20 6 20 8 3 12 16 0 2 10 4 3 10 3 6 8 0 1 0 0 0 0 0 0 0 0 0 0 0 0 0 0 0 0 0
2280 2022 1818 1472 1668 1690 1413 1348 1572 1467 1258 1081 990 952 961 920 896 1223 821 736 706 679 760 877 872 627 969 968 862 939 1064 880 632 576 566 496 258 203 184 180 211 160 156 0 172 180 107 18 14 54 50 94 84 29 5 16 37 19 20 9 8 2 0 0 4 0 0 0 0 0 0 0 0 0 0 0 0 0 0 0 0 0 0 0 0
2082 2005 1709 1508 1181 1520 1449 1473 1653 1547 1126 901 864 820 790 731 706 692 688 692 702 647 632 617 644 686 1831 610 723 982 928 670 533 387 486 392 288 293 255 0 0 0 143 105 97 88 47 49 22 13 6 2 5 5 2 2 6 11 11 6 14 27 18 6 4 0 0 0 0 0 0 0 0 0 0 0 0 0 0 0 0 0 0 0 0
1986 1638 1650 1237 1283 1405 1395 1512 1597 1395 1122 1004 752 744 719 682 693 702 717 736 684 658 586 575 540 492 426 362 446 646 715 598 471 360 290 242 217 76 0 0 192 172 126 31 187 128 40 41 84 90 72 14 5 0 3 6 10 1 4 5 5 3 3 0 0 0 0 0 0 0 0 0 0 0 0 0 0 0 0 0 0 0 0 0 0
1300 1158 1488 1332 1196 1274 1604 1567 1548 1369 1065 1176 1014 923 815 708 692 694 725 819 824 727 628 545 516 518 477 476 502 752 619 576 537 508 239 0 0 0 0 110 156 173 170 44 86 8 66 85 50 34 12 13 7 2 9 2 3 3 1 11 1 6 1 0 0 0 0 0 0 0 0 0 0 0 0 0 0 0 0 0 0 0 0 0 0
1600 1610 1506 1312 1259 1311 1257 1494 1376 1230 997 1208 1049 968 1006 905 904 588 600 622 652 730 685 581 512 468 462 410 495 409 476 558 554 384 15 0 0 0 0 35 36 40 20 62 0 36 83 26 2 8 16 6 5 2 3 4 5 6 6 8 10 2 0 0 0 0 0 0 0 0 0 0 0 0 0 0 0 0 0 0 0 0 0 0 0
1612 1505 1364 1322 1298 1068 560 706 537 792 1012 960 964 895 812 652 719 531 386 357 368 282 267 220 89 6 477 576 597 441 0 0 0 0 0 0 0 0 0 32 0 0 0 0 0 18 25 42 10 2 8 2 4 1 2 1 1 8 9 7 1 0 0 0 0 0 0 0 0 0 0 0 0 0 0 0 0 0 0 0 0 0 0 0 0
1543 1373 1274 1131 950 882 696 686 626 470 820 1020 659 399 397 454 492 630 594 568 639 456 74 0 0 0 250 471 514 359 0 0 0 0 0 0 17 0 0 0 0 0 0 0 0 0 17 9 3 1 7 10 11 6 2 7 6 8 10 0 0 0 0 0 0 0 0 0 0 0 0 0 0 0 0 0 0 0 0 0 0 0 0 0 0
1132 1026 1056 1119 985 824 692 738 816 810 698 770 597 646 666 590 531 644 682 833 883 630 4 0 0 0 0 0 0 0 0 0 0 0 0 0 72 0 13 66 90 42 1 16 3 11 3 2 4 5 6 0 1 2 1 5 7 8 1 0 0 0 0 0 0 0 0 0 0 0 0 0 0 0 0 0 0 0 0 0 0 0 0 0 0
964 803 886 901 838 857 1116 803 523 392 610 636 814 836 915 910 836 746 736 686 725 494 269 60 1 4 0 0 0 0 0 0 0 0 0 0 4 0 0 21 83 34 2 1 8 1 1 6 2 0 0 0 0 0 6 8 8 5 2 7 0 0 0 0 0 0 0 0 0 0 0 0 0 0 0 0 0 0 0 0 0 0 0 0 0
1439 1080 966 988 991 1112 1230 1146 644 440 348 659 927 1040 976 968 875 859 710 445 318 501 555 309 251 240 65 0 0 0 0 0 0 0 0 0 0 0 0 6 26 0 0 4 2 1 6 2 2 2 0 3 2 1 2 5 2 4 3 2 0 0 0 0 0 0 0 0 0 0 0 0 0 0 0 0 0 0 0 0 0 0 0 0 0
889 594 515 465 803 1166 1584 1561 1034 705 834 1102 1292 1194 1088 939 917 844 840 744 610 656 603 443 365 299 49 0 0 0 0 0 0 0 0 0 4 2 1 10 11 8 2 2 0 2 11 10 10 3 1 1 1 4 8 4 4 5 4 1 0 0 0 0 0 0 0 0 0 0 0 0 0 0 0 0 0 0 0 0 0 0 0 0 0
794 476 439 518 712 1266 1584 1309 1174 1334 1199 1271 1306 1238 1183 1086 1017 1010 959 842 608 654 676 572 414 316 84 0 0 0 0 3 6 31 14 16 24 7 16 28 6 2 1 12 2 2 3 6 2 2 3 7 4 3 2 2 0 0 0 0 0 0 0 0 0 0 0 0 0 0 0 0 0 0 0 0 0 0 0 0 0 0 0 0 0
1023 1240 725 932 1093 1296 1336 1016 1220 1266 1316 1240 1300 1180 1146 972 979 870 756 651 405 497 506 520 382 211 109 0 0 0 1 92 123 88 64 25 23 30 9 9 1 7 4 2 4 11 14 14 3 2 0 0 0 2 2 0 2 0 0 0 0 0 0 0 0 0 0 0 0 0 0 0 0 0 0 0 0 0 0 0 0 0 0 0 0
639 1336 1121 1110 1145 1308 1108 1112 1197 1350 1404 1318 1138 1019 820 675 612 438 383 536 584 524 502 536 258 82 150 117 30 0 0 45 6 27 78 15 8 5 4 8 5 10 1 8 2 4 3 2 1 0 0 0 0 0 0 0 0 0 0 0 0 0 0 0 0 0 0 0 0 0 0 0 0 0 0 0 0 0 0 0 0 0 0 0 0
1102 1107 1168 1087 1063 822 622 911 978 938 744 544 620 688 574 408 441 574 536 558 608 428 463 445 312 149 90 7 0 2 4 6 150 116 54 38 9 4 6 4 8 1 2 4 4 3 3 0 1 0 0 0 0 0 0 0 0 0 0 0 0 0 0 0 0 0 0 0 0 0 0 0 0 0 0 0 0 0 0 0 0 0 0 0 0
938 1022 805 653 668 621 338 468 292 378 422 280 201 240 132 227 325 414 358 398 335 338 311 251 231 228 144 62 39 20 18 40 64 66 55 24 9 8 2 2 1 2 1 6 4 6 3 1 0 0 0 0 0 0 0 0 0 0 0 0 0 0 0 0 0 0 0 0 0 0 0 0 0 0 0 0 0 0 0 0 0 0 0 0 0
896 671 547 315 383 257 558 597 508 397 180 131 163 208 185 318 474 405 352 346 344 298 381 302 267 208 174 174 74 27 13 78 32 24 21 2 2 5 4 1 2 8 4 4 7 4 0 0 0 0 0 0 0 0 0 0 0 0 0 0 0 0 0 0 0 0 0 0 0 0 0 0 0 0 0 0 0 0 0 0 0 0 0 0 0
638 472 303 458 366 454 589 479 198 55 112 264 279 227 208 364 352 330 184 218 206 204 243 254 294 440 310 168 134 115 56 37 52 12 7 16 18 6 7 4 1 2 0 6 5 7 5 6 4 1 1 0 0 0 0 0 0 0 0 0 0 0 0 0 0 0 0 0 0 0 0 0 0 0 0 0 0 0 0 0 0 0 0 0 0
547 379 386 291 338 373 375 312 310 184 308 276 305 97 246 173 74 18 32 24 22 52 36 38 78 180 172 96 70 43 37 30 11 3 17 7 13 16 6 3 8 5 4 5 5 3 6 6 6 3 4 2 0 0 0 0 0 0 0 0 0 0 0 0 0 0 0 0 0 0 0 0 0 0 0 0 0 0 0 0 0 0 0 0 0
307 346 296 316 290 367 309 424 226 87 226 183 5 3 42 59 17 18 3 4 0 1 3 5 2 12 8 6 8 13 11 27 50 33 27 8 6 1 8 2 8 7 3 2 1 2 10 2 5 2 0 6 2 0 0 0 0 0 0 0 0 0 0 0 0 0 0 0 0 0 0 0 0 0 0 0 0 0 0 0 0 0 0 0 0
161 240 188 92 149 192 242 157 74 140 60 13 16 10 5 2 3 5 4 6 8 8 6 6 5 5 9 7 10 11 11 14 18 22 14 18 22 15 13 15 12 12 6 6 4 0 1 0 4 1 3 3 3 1 0 0 0 0 0 0 0 0 0 0 0 0 0 0 0 0 0 0 0 0 0 0 0 0 0 0 0 0 0 0 0
56 77 113 152 170 161 170 76 25 21 47 23 7 2 2 0 5 4 1 3 2 2 3 6 4 4 8 10 8 8 10 14 14 15 26 30 11 7 13 14 16 8 4 6 5 6 4 8 3 3 5 0 1 1 0 0 0 0 0 0 0 0 0 0 0 0 0 0 0 0 0 0 0 0 0 0 0 0 0 0 0 0 0 0 0
Wind_Speed
18 16 16 16 16 16 15 15 16 16 18 19 20 21 22 23 26 28 30 31 33 34 33 33 35 35 34 33 35 35 36 39 39 37 36 39 37 32 29 30 28 27 25 24 25 26 26 24 23 24 24 23 24 24 24 24 23 23 23 24 24 23 24 23 20 18 19 24 27 29 nan nan nan nan nan 39 40 nan nan 42 42 42 42 42 42
17 17 16 15 15 15 16 17 18 18 19 20 21 23 24 25 28 31 33 34 36 37 36 35 36 37 34 34 35 37 38 39 37 33 33 37 37 32 29 30 31 29 28 26 24 25 26 25 23 24 24 23 23 24 25 26 26 23 24 25 25 25 26 24 23 21 19 22 26 30 32 33 33 36 nan nan 40 41 40 42 43 42 43 44 43
17 16 15 15 16 16 17 18 19 20 21 21 23 25 26 27 30 32 33 35 37 38 38 36 36 37 36 37 39 39 39 39 35 30 29 34 36 35 33 34 34 32 30 26 24 26 27 26 24 24 26 25 25 27 28 28 26 24 24 26 26 25 24 25 23 20 19 23 27 28 30 32 34 36 37 40 43 44 43 43 43 44 44 44 44
17 17 16 17 18 18 18 18 20 21 21 22 24 25 26 27 29 32 35 36 39 38 37 36 36 38 40 42 42 40 39 38 34 29 29 34 37 38 38 37 36 35 31 26 25 26 27 26 25 25 26 26 28 29 30 27 25 25 26 27 27 25 24 23 24 24 24 24 29 31 33 33 35 37 40 42 42 44 45 45 44 45 45 44 45
18 18 18 19 19 19 19 20 21 22 22 22 25 26 26 27 28 33 37 38 39 39 36 35 36 39 40 41 41 39 35 32 29 25 27 34 37 39 40 40 38 36 32 28 26 27 27 26 25 27 26 26 27 27 27 25 25 26 27 28 28 26 25 25 25 27 31 31 33 36 37 37 38 39 41 42 43 45 46 46 47 47 45 44 nan
19 20 19 18 18 19 20 20 21 22 23 23 25 26 26 26 27 33 39 40 41 41 40 37 36 38 38 39 39 38 34 29 26 26 31 34 37 38 40 40 38 36 34 30 28 28 28 27 28 28 27 27 27 27 27 26 26 27 27 29 29 27 26 27 28 30 34 36 37 37 41 41 41 42 43 44 44 47 48 47 46 46 46 45 nan
19 20 19 18 17 18 19 20 20 21 22 22 23 24 26 26 28 34 38 41 43 43 42 41 38 38 38 38 40 39 36 32 31 34 37 37 37 37 38 39 37 36 35 31 29 28 28 28 28 29 29 27 26 26 26 27 28 28 30 31 31 30 29 31 33 35 36 38 39 39 41 43 44 42 43 44 50 49 45 45 44 45 46 46 46
19 19 18 16 16 18 19 20 21 22 22 23 24 26 26 26 30 34 38 42 44 45 45 44 41 40 38 38 39 37 34 32 32 35 36 37 37 36 36 36 35 34 33 30 28 27 27 28 29 31 30 27 26 27 27 27 29 29 31 32 33 33 33 34 35 36 37 38 40 42 45 46 45 43 43 44 46 47 48 45 43 44 45 45 44
18 17 17 15 17 19 20 21 20 21 22 23 24 25 26 27 30 34 37 40 41 44 44 44 43 42 40 38 38 37 35 33 32 31 33 35 35 34 35 35 33 32 32 29 29 28 27 27 29 31 31 30 30 30 28 29 30 31 33 33 32 33 36 37 37 36 37 39 41 45 46 48 48 46 45 45 46 44 47 45 44 43 42 41 42
16 16 16 17 19 20 21 21 22 22 23 24 25 26 26 29 31 34 37 40 41 42 43 44 43 43 42 40 38 38 37 34 33 36 35 35 35 33 35 35 31 31 31 29 28 28 29 30 30 30 31 35 36 34 32 32 34 35 35 35 34 36 38 37 36 36 36 38 41 46 47 nan nan 44 43 43 44 43 43 45 43 42 41 39 39
16 17 18 19 21 22 23 23 24 25 26 26 28 28 29 30 33 35 37 39 42 42 42 43 41 41 42 41 40 39 38 35 40 40 39 37 36 34 35 36 32 30 30 29 29 29 30 31 31 31 34 36 36 36 34 35 34 35 35 35 38 40 37 35 34 35 nan nan nan 46 46 43 nan 41 42 nan nan 42 43 43 43 41 39 38 36
19 20 21 22 23 24 24 24 26 28 29 29 30 32 31 32 33 38 40 42 44 44 45 44 41 40 40 41 40 38 37 37 43 43 40 38 36 35 36 35 32 29 28 29 31 31 30 29 30 32 31 35 36 38 35 34 33 32 32 35 36 nan nan 36 34 35 38 42 45 45 43 41 40 40 41 nan 41 42 42 42 42 40 38 37 34
24 24 23 23 24 25 26 26 27 29 30 32 34 34 33 34 37 40 43 44 46 48 48 46 43 41 40 39 38 38 34 39 42 42 nan 38 38 37 36 33 32 30 27 29 31 31 31 29 28 31 34 39 39 38 39 33 27 26 29 33 36 38 39 nan nan 40 43 46 45 41 40 39 38 39 40 41 41 39 41 41 40 39 37 34 32
27 27 26 25 27 28 28 29 30 31 33 36 38 38 36 37 39 41 41 44 47 49 48 46 44 41 39 37 36 37 34 43 42 42 39 40 41 39 35 31 29 28 27 29 30 31 31 28 29 33 36 44 40 39 41 40 42 39 36 39 41 42 44 nan nan nan nan nan nan 39 38 38 38 38 38 39 40 40 40 38 37 36 35 32 29
30 31 31 30 31 32 32 33 35 36 37 38 39 40 40 41 43 43 44 47 50 48 45 43 41 40 40 39 36 37 36 44 42 41 40 41 42 41 35 nan 28 28 29 28 29 30 29 27 31 34 38 40 42 43 41 40 40 41 41 40 39 37 38 nan 47 51 51 48 41 37 37 38 37 37 39 39 39 nan nan nan nan nan nan nan nan
34 35 36 36 35 35 36 36 37 39 40 41 41 42 41 42 44 46 47 50 51 46 42 39 38 37 37 36 35 36 36 43 40 40 42 41 41 37 32 29 27 29 31 30 28 31 27 30 39 42 39 37 44 44 42 40 39 40 41 41 nan nan nan nan 50 47 43 nan nan nan nan nan nan nan nan nan nan nan nan nan nan nan nan nan nan
35 38 39 40 39 38 38 38 39 41 43 44 45 46 45 45 45 47 50 51 51 46 40 38 36 36 36 36 33 33 33 37 39 40 40 37 34 30 28 27 28 30 32 31 30 33 31 35 41 42 39 36 44 46 47 42 40 42 42 nan nan nan nan nan 55 nan nan nan nan nan nan nan nan nan nan nan nan nan nan nan nan nan nan nan nan
38 40 42 43 43 41 40 41 42 43 46 47 47 49 50 49 48 52 53 53 49 43 40 37 35 34 37 36 33 33 31 38 41 39 36 33 30 25 25 26 28 30 31 31 36 35 36 42 46 43 39 38 46 nan nan nan 44 44 42 nan nan nan 40 40 40 46 nan nan nan nan nan nan nan nan nan nan nan nan nan nan nan nan nan nan nan
41 42 44 46 47 45 43 43 44 45 48 48 50 53 53 51 50 53 54 52 46 40 38 36 34 34 36 35 36 34 31 35 39 33 30 29 28 24 25 27 29 31 34 36 35 34 38 42 41 40 38 45 48 49 48 nan 46 44 41 nan nan nan nan nan nan nan nan 43 42 41 40 41 42 43 44 nan nan nan nan 37 nan nan nan nan nan
44 45 48 49 49 48 45 45 46 46 48 50 53 53 53 53 54 57 55 51 44 40 39 37 36 36 37 35 36 34 31 30 35 31 28 31 33 29 27 27 29 32 36 37 34 38 37 37 40 40 44 49 50 nan nan nan nan nan nan nan nan nan 40 39 37 nan nan nan nan nan nan nan nan nan nan nan 41 43 41 37 33 31 31 28 nan
49 50 50 50 51 50 48 48 49 49 51 54 54 53 53 55 58 59 54 48 43 39 39 38 38 37 34 35 34 34 32 29 35 32 31 35 37 33 29 28 30 33 38 41 41 39 39 36 35 43 49 53 nan nan nan nan nan nan nan nan nan nan nan nan nan nan nan nan nan nan nan nan nan nan nan nan nan nan nan nan 30 nan nan nan nan
54 54 54 53 52 50 49 51 51 52 53 55 55 55 57 58 60 58 50 45 41 39 39 39 37 35 34 33 33 33 32 28 33 31 35 38 nan 37 31 30 30 35 38 37 38 39 39 39 36 49 56 57 nan nan nan nan nan nan nan nan nan nan nan nan nan nan nan nan nan nan nan nan nan nan nan nan nan nan nan nan nan nan nan nan nan
59 58 56 55 52 50 50 53 53 54 55 55 55 58 59 59 59 54 48 44 42 41 41 41 38 36 36 35 36 38 40 35 34 32 33 38 39 38 34 30 41 39 38 37 37 39 38 38 49 57 nan nan nan nan nan nan nan nan nan nan nan nan nan nan nan nan nan nan nan nan nan nan nan nan nan nan nan nan nan nan nan nan nan nan nan
63 62 61 58 52 48 50 53 54 55 55 55 57 59 60 59 57 51 47 45 44 44 43 41 39 38 38 39 40 41 35 35 32 37 37 36 36 35 35 36 41 37 36 37 39 38 40 50 54 59 58 nan nan nan nan nan nan nan nan nan nan nan nan nan nan nan nan nan nan nan nan nan nan nan nan nan nan nan nan nan nan nan nan nan nan
66 64 64 60 52 47 50 53 53 54 55 57 58 59 60 57 53 49 46 45 45 45 43 42 40 40 41 41 42 37 34 37 36 37 40 39 37 37 39 42 41 41 39 38 42 49 57 62 62 58 55 nan nan nan nan nan nan nan nan nan nan nan nan nan nan nan nan nan nan nan nan nan nan nan nan nan nan nan nan nan nan nan nan nan nan
65 64 64 60 53 49 51 52 52 53 55 55 57 58 58 55 52 49 46 46 45 44 42 41 43 45 45 43 42 36 37 38 38 39 39 39 37 39 42 43 43 43 nan 50 56 60 61 61 60 nan nan nan nan nan nan nan nan nan nan nan nan nan nan nan nan nan nan nan nan nan nan nan nan nan nan nan nan nan nan nan nan nan nan nan nan
64 64 63 58 52 49 51 51 52 53 54 54 55 55 55 53 51 49 47 46 44 42 41 43 46 49 45 44 39 37 36 38 39 39 41 40 nan nan nan nan nan 45 45 49 53 54 55 nan nan nan nan nan nan nan nan nan nan nan nan nan nan nan nan nan nan nan nan nan nan nan nan nan nan nan nan nan nan nan nan nan nan nan nan nan nan
67 67 65 58 52 50 50 53 54 53 53 53 54 54 54 52 51 49 47 45 42 42 43 46 47 49 46 44 38 37 34 35 36 39 40 nan nan nan nan nan 41 42 43 45 45 nan nan nan nan nan nan nan nan nan nan nan nan nan nan nan nan nan nan nan nan nan nan nan nan nan nan nan nan nan nan nan nan nan nan nan nan nan nan nan nan
67 68 64 59 55 52 52 52 52 54 55 56 55 52 50 50 50 52 51 45 41 41 46 47 46 44 44 43 37 34 36 38 38 41 46 46 nan nan nan 40 41 42 42 nan 43 45 nan nan nan nan nan nan nan nan nan nan nan nan nan nan nan nan nan nan nan nan nan nan nan nan nan nan nan nan nan nan nan nan nan nan nan nan nan nan nan
65 64 60 57 55 53 52 52 54 55 55 56 56 55 56 58 52 49 51 49 47 46 51 48 45 43 48 47 41 41 40 42 51 54 56 54 50 47 46 46 44 44 48 nan 38 40 41 nan nan nan nan nan nan nan nan nan nan nan nan nan nan nan nan nan nan nan nan nan nan nan nan nan nan nan nan nan nan nan nan nan nan nan nan nan nan
63 62 58 54 53 52 52 55 55 53 54 55 55 56 56 56 58 57 54 50 50 50 51 50 46 43 42 47 47 49 50 57 58 57 57 55 53 52 50 nan nan nan 46 44 nan nan nan nan nan nan nan nan nan nan nan nan nan nan nan nan nan nan nan nan nan nan nan nan nan nan nan nan nan nan nan nan nan nan nan nan nan nan nan nan nan
60 59 55 58 54 51 53 55 55 54 53 55 56 56 55 54 52 54 54 53 52 52 50 48 46 47 46 47 45 44 47 51 56 57 56 55 53 nan nan nan 48 48 44 nan 42 41 nan nan nan nan nan nan nan nan nan nan nan nan nan nan nan nan nan nan nan nan nan nan nan nan nan nan nan nan nan nan nan nan nan nan nan nan nan nan nan
58 59 60 56 52 51 55 54 53 53 55 56 56 54 52 51 51 51 52 54 55 54 52 49 47 45 47 47 47 48 49 49 53 55 55 nan nan nan nan 49 47 45 48 nan nan nan nan nan nan nan nan nan nan nan nan nan nan nan nan nan nan nan nan nan nan nan nan nan nan nan nan nan nan nan nan nan nan nan nan nan nan nan nan nan nan
60 57 54 51 51 52 54 53 54 55 54 54 54 53 52 51 50 52 53 52 53 53 53 51 48 48 48 49 54 55 54 53 53 54 nan nan nan nan nan nan nan nan nan nan nan nan nan nan nan nan nan nan nan nan nan nan nan nan nan nan nan nan nan nan nan nan nan nan nan nan nan nan nan nan nan nan nan nan nan nan nan nan nan nan nan
54 54 54 52 50 49 53 54 53 56 54 53 54 51 51 51 53 53 51 52 52 52 50 49 nan nan 48 49 51 54 nan nan nan nan nan nan nan nan nan nan nan nan nan nan nan nan nan nan nan nan nan nan nan nan nan nan nan nan nan nan nan nan nan nan nan nan nan nan nan nan nan nan nan nan nan nan nan nan nan nan nan nan nan nan nan
49 49 50 51 52 53 55 54 52 54 54 52 50 50 50 50 51 51 52 52 53 53 nan nan nan nan 55 54 54 54 nan nan nan nan nan nan nan nan nan nan nan nan nan nan nan nan nan nan nan nan nan nan nan nan nan nan nan nan nan nan nan nan nan nan nan nan nan nan nan nan nan nan nan nan nan nan nan nan nan nan nan nan nan nan nan
48 49 50 52 54 55 54 55 52 52 52 50 49 49 50 51 51 51 52 52 53 52 nan nan nan nan nan nan nan nan nan nan nan nan nan nan nan nan nan nan nan nan nan nan nan nan nan nan nan nan nan nan nan nan nan nan nan nan nan nan nan nan nan nan nan nan nan nan nan nan nan nan nan nan nan nan nan nan nan nan nan nan nan nan nan
48 49 51 54 54 54 53 50 51 53 50 49 49 49 51 51 51 51 51 53 52 51 51 nan nan nan nan nan nan nan nan nan nan nan nan nan nan nan nan nan nan nan nan nan nan nan nan nan nan nan nan nan nan nan nan nan nan nan nan nan nan nan nan nan nan nan nan nan nan nan nan nan nan nan nan nan nan nan nan nan nan nan nan nan nan
52 57 58 54 50 49 48 48 51 48 49 48 49 49 50 50 50 49 50 50 48 48 49 50 49 48 nan nan nan nan nan nan nan nan nan nan nan nan nan nan nan nan nan nan nan nan nan nan nan nan nan nan nan nan nan nan nan nan nan nan nan nan nan nan nan nan nan nan nan nan nan nan nan nan nan nan nan nan nan nan nan nan nan nan nan
51 50 48 46 46 45 47 50 49 49 49 48 49 48 49 49 48 48 48 49 48 47 48 47 46 46 nan nan nan nan nan nan nan nan nan nan nan nan nan nan nan nan nan nan nan nan nan nan nan nan nan nan nan nan nan nan nan nan nan nan nan nan nan nan nan nan nan nan nan nan nan nan nan nan nan nan nan nan nan nan nan nan nan nan nan
45 46 46 42 45 47 48 49 48 49 48 47 48 47 48 47 48 48 48 48 47 46 45 44 44 43 nan nan nan nan nan nan nan nan nan nan nan nan nan nan nan nan nan nan nan nan nan nan nan nan nan nan nan nan nan nan nan nan nan nan nan nan nan nan nan nan nan nan nan nan nan nan nan nan nan nan nan nan nan nan nan nan nan nan nan
43 44 44 46 48 47 48 47 48 48 47 47 47 46 48 47 47 47 47 47 46 45 42 42 40 40 45 nan nan nan nan nan 39 nan nan nan nan nan nan nan nan nan nan nan nan nan nan nan nan nan nan nan nan nan nan nan nan nan nan nan nan nan nan nan nan nan nan nan nan nan nan nan nan nan nan nan nan nan nan nan nan nan nan nan nan
43 44 46 47 46 46 46 46 47 46 46 46 46 47 47 46 47 46 45 43 44 42 40 40 44 nan 44 44 nan nan nan nan nan nan nan nan nan nan nan nan nan nan nan nan nan nan nan nan nan nan nan nan nan nan nan nan nan nan nan nan nan nan nan nan nan nan nan nan nan nan nan nan nan nan nan nan nan nan nan nan nan nan nan nan nan
43 44 44 44 44 44 44 45 46 43 43 46 47 46 45 44 43 42 42 41 40 39 39 39 41 42 nan nan nan nan nan nan 29 29 nan nan nan nan nan nan nan nan nan nan nan nan nan nan nan nan nan nan nan nan nan nan nan nan nan nan nan nan nan nan nan nan nan nan nan nan nan nan nan nan nan nan nan nan nan nan nan nan nan nan nan
42 42 43 43 43 43 44 43 43 45 45 45 43 43 41 40 40 39 38 38 37 36 36 35 36 37 35 nan nan nan nan nan nan nan nan nan nan nan nan nan nan nan nan nan nan nan nan nan nan nan nan nan nan nan nan nan nan nan nan nan nan nan nan nan nan nan nan nan nan nan nan nan nan nan nan nan nan nan nan nan nan nan nan nan nan
40 42 41 42 42 42 42 42 43 41 40 40 40 39 39 37 38 37 36 37 35 34 33 32 31 36 34 33 nan nan nan nan nan nan nan nan nan nan nan nan nan nan nan nan nan nan nan nan nan nan nan nan nan nan nan nan nan nan nan nan nan nan nan nan nan nan nan nan nan nan nan nan nan nan nan nan nan nan nan nan nan nan nan nan nan
41 40 40 42 40 40 40 40 38 nan 38 38 37 37 35 34 35 35 34 33 33 32 31 32 30 33 30 28 27 27 nan nan nan nan nan nan nan nan nan nan nan nan nan nan nan nan nan nan nan nan nan nan nan nan nan nan nan nan nan nan nan nan nan nan nan nan nan nan nan nan nan nan nan nan nan nan nan nan nan nan nan nan nan nan nan
40 39 38 37 37 37 36 35 37 36 34 35 32 nan 34 33 nan nan nan nan nan nan nan nan nan 25 25 nan nan nan nan nan nan nan nan nan nan nan nan nan nan nan nan nan nan nan nan nan nan nan nan nan nan nan nan nan nan nan nan nan nan nan nan nan nan nan nan nan nan nan nan nan nan nan nan nan nan nan nan nan nan nan nan nan nan
35 35 35 34 34 34 34 34 35 nan 34 32 nan nan nan nan nan nan nan nan nan nan nan nan nan nan nan nan nan nan nan nan nan nan nan nan nan nan nan nan nan nan nan nan nan nan nan nan nan nan nan nan nan nan nan nan nan nan nan nan nan nan nan nan nan nan nan nan nan nan nan nan nan nan nan nan nan nan nan nan nan nan nan nan nan
33 33 33 nan 33 33 33 33 nan 32 nan nan nan nan nan nan nan nan nan nan nan nan nan nan nan nan nan nan nan nan nan nan nan nan nan nan nan nan nan nan nan nan nan nan nan nan nan nan nan nan nan nan nan nan nan nan nan nan nan nan nan nan nan nan nan nan nan nan nan nan nan nan nan nan nan nan nan nan nan nan nan nan nan nan nan
nan nan 32 33 32 32 32 nan nan nan nan nan nan nan nan nan nan nan nan nan nan nan nan nan nan nan nan nan nan nan nan nan nan nan nan nan nan nan nan nan nan nan nan nan nan nan nan nan nan nan nan nan nan nan nan nan nan nan nan nan nan nan nan nan nan nan nan nan nan nan nan nan nan nan nan nan nan nan nan nan nan nan nan nan nan
Wind_Direction
321 312 305 304 304 304 303 304 310 309 316 318 320 319 320 324 323 324 325 330 332 335 333 330 327 329 333 330 327 326 327 324 321 322 325 325 324 315 304 305 307 302 300 300 304 307 305 300 294 293 293 292 291 289 288 289 290 289 291 294 297 300 304 305 303 298 302 306 305 302 nan nan nan nan nan 305 305 nan nan 304 304 303 303 301 299
321 315 312 308 312 308 310 310 312 312 320 321 322 319 320 323 323 324 330 334 335 336 335 331 326 327 330 328 325 326 328 326 320 318 325 327 325 316 303 297 299 299 300 306 310 310 307 302 299 299 298 295 292 295 296 295 293 290 293 297 299 303 307 308 307 306 310 304 301 299 299 299 301 303 nan nan 304 302 301 300 301 302 300 298 297
320 311 311 308 313 312 313 314 314 319 324 320 323 320 319 324 325 329 333 337 338 336 334 332 325 325 328 327 326 325 325 323 314 307 320 326 321 314 305 298 298 301 304 308 313 315 313 307 306 305 300 298 296 297 299 299 297 296 298 299 301 305 308 309 306 308 309 306 304 305 306 305 305 304 304 303 303 303 302 301 302 301 299 298 298
323 317 313 314 318 318 316 314 319 321 323 318 321 320 319 326 331 335 337 338 340 338 335 331 327 326 328 326 326 325 325 325 318 304 308 319 316 309 304 299 301 305 305 304 308 314 314 310 311 311 307 304 302 301 302 302 299 298 299 300 301 303 303 301 301 301 307 313 314 316 315 313 310 306 304 302 301 300 299 298 300 301 300 299 300
323 319 318 321 321 318 318 317 319 322 322 319 323 322 326 335 339 340 338 341 342 340 335 330 326 326 326 323 323 326 326 330 335 325 311 308 306 302 300 298 301 306 307 305 303 308 313 314 313 313 310 307 304 301 299 300 297 297 296 297 300 298 293 290 294 303 310 316 318 317 317 317 313 309 304 302 300 299 298 299 300 299 299 299 nan
321 316 315 317 315 318 317 320 324 326 328 327 328 328 331 340 342 337 338 341 342 342 338 333 328 326 325 324 323 324 321 319 326 330 325 314 302 299 299 299 302 305 308 310 308 309 314 313 312 312 309 305 301 299 298 299 298 296 295 294 296 298 296 293 295 302 308 312 315 316 317 315 312 309 304 302 302 300 299 300 300 298 297 299 nan
308 310 311 315 313 318 322 325 326 329 330 329 327 330 336 343 340 334 336 340 339 339 339 336 329 325 326 325 324 325 322 313 303 305 313 315 305 300 300 301 303 303 306 311 311 312 314 311 308 309 306 303 303 301 300 301 299 300 299 297 295 297 298 296 295 298 301 303 305 308 309 310 309 307 303 300 300 302 301 300 299 299 300 300 299
304 302 306 310 313 320 322 323 326 325 326 326 327 329 335 338 334 330 334 338 337 338 337 336 329 325 325 324 323 323 326 321 309 301 305 308 305 303 298 298 303 303 304 310 311 309 309 308 307 306 306 304 304 303 302 303 303 305 304 302 298 298 299 296 295 295 296 299 303 305 308 308 308 305 302 301 301 303 303 299 299 299 299 300 301
300 299 301 307 310 313 316 319 323 325 328 330 330 331 335 336 332 331 334 335 332 334 334 333 328 324 321 320 319 316 316 319 316 308 306 306 305 306 300 295 299 303 304 308 308 306 304 302 302 304 306 310 312 308 306 302 304 306 304 300 299 299 300 298 295 294 297 302 306 308 309 309 307 304 302 300 302 302 297 297 298 299 299 301 303
296 297 301 301 304 311 319 327 329 332 332 333 331 337 335 334 332 333 333 332 328 328 329 329 326 320 317 316 315 310 310 312 314 314 308 305 307 302 295 294 300 301 300 300 300 302 302 301 302 305 302 302 303 309 314 315 314 311 306 302 299 300 301 298 294 293 296 302 307 307 307 nan nan 300 298 298 297 297 298 297 297 298 299 302 304
293 293 298 300 305 313 317 325 330 329 330 330 332 334 338 333 331 334 335 329 325 323 324 323 322 315 314 313 313 309 308 310 312 312 309 308 305 302 295 294 297 296 297 297 297 299 300 301 301 303 308 310 307 301 301 303 306 310 311 308 306 305 304 301 297 295 nan nan nan 305 303 301 nan 298 297 nan nan 296 296 297 298 298 300 301 303
291 292 297 302 308 315 315 325 327 326 328 329 326 326 328 335 332 325 327 327 323 322 320 319 317 312 309 311 312 308 308 307 308 308 307 307 302 298 295 292 293 290 295 297 296 299 299 298 300 302 308 307 306 303 303 302 306 311 316 316 316 nan nan 309 301 298 301 304 305 304 301 299 297 297 296 nan 294 294 296 296 297 298 300 303 304
291 295 298 305 310 313 314 322 324 323 324 323 321 320 327 323 319 322 324 324 324 320 318 316 314 309 308 312 311 308 307 300 303 304 nan 309 304 297 294 293 293 297 297 295 298 298 296 295 300 303 300 292 295 298 295 293 297 302 317 323 321 320 317 nan nan 306 305 308 307 304 301 298 297 296 294 293 293 297 297 297 297 299 301 302 304
294 296 298 303 306 309 312 316 317 318 317 317 318 320 324 321 316 317 321 326 324 322 319 315 309 306 307 309 308 305 305 301 305 308 310 306 300 298 294 297 298 298 297 296 297 298 291 292 300 302 299 296 299 300 299 300 303 312 318 317 314 316 319 nan nan nan nan nan nan 303 300 298 298 295 294 293 295 298 297 298 297 299 300 303 300
297 298 300 302 306 309 311 311 312 315 316 315 316 319 321 316 314 316 323 324 320 319 319 312 305 305 307 308 308 306 301 304 308 310 309 305 302 299 298 nan 298 297 295 295 295 285 283 293 299 295 293 292 296 300 299 301 307 307 305 304 304 301 300 nan 309 309 309 309 308 305 302 301 299 296 294 296 298 nan nan nan nan nan nan nan nan
298 299 301 303 307 310 310 311 311 311 312 312 313 317 317 315 315 315 316 318 317 316 312 304 302 304 306 309 308 304 295 307 311 313 309 307 307 297 301 303 300 297 295 295 293 288 292 292 288 291 291 292 294 294 290 291 294 297 299 300 nan nan nan nan 302 301 303 nan nan nan nan nan nan nan nan nan nan nan nan nan nan nan nan nan nan
296 297 299 302 305 307 307 308 308 309 309 311 311 313 313 313 312 310 312 315 316 314 308 302 300 304 302 302 306 300 299 309 312 311 307 310 301 295 298 297 296 296 294 291 287 281 284 289 289 290 291 289 288 290 289 290 297 298 298 nan nan nan nan nan 308 nan nan nan nan nan nan nan nan nan nan nan nan nan nan nan nan nan nan nan nan
292 292 294 297 300 302 303 304 304 306 306 308 310 311 310 311 313 309 312 314 316 314 308 302 303 307 309 312 314 307 307 309 316 313 314 312 304 301 296 294 293 292 291 288 280 276 284 286 288 289 288 288 289 nan nan nan 300 301 299 nan nan nan 305 302 299 301 nan nan nan nan nan nan nan nan nan nan nan nan nan nan nan nan nan nan nan
288 289 289 292 294 296 298 300 301 303 305 306 306 309 309 306 306 306 310 311 308 307 306 306 307 308 310 313 312 314 311 307 316 318 314 308 307 303 299 294 291 290 286 279 280 290 290 290 293 291 288 286 291 292 295 nan 301 302 301 nan nan nan nan nan nan nan nan 307 307 307 310 315 316 313 314 nan nan nan nan 315 nan nan nan nan nan
284 284 284 285 287 291 293 296 296 298 301 302 304 307 307 305 305 305 307 307 305 306 306 305 308 308 309 311 308 312 312 311 311 316 311 311 316 305 301 294 290 289 284 284 289 291 293 293 297 300 295 293 295 nan nan nan nan nan nan nan nan nan 293 292 295 nan nan nan nan nan nan nan nan nan nan nan 312 316 316 313 310 306 305 304 nan
279 279 279 280 283 286 289 292 294 295 298 299 303 305 305 304 303 305 307 306 302 301 305 306 307 308 312 313 313 314 311 315 305 313 311 313 316 313 304 300 292 288 285 284 285 290 294 297 295 303 299 296 nan nan nan nan nan nan nan nan nan nan nan nan nan nan nan nan nan nan nan nan nan nan nan nan nan nan nan nan 306 nan nan nan nan
274 274 275 276 279 282 286 289 291 293 296 298 301 302 300 301 302 305 304 303 302 302 303 305 305 305 307 310 307 305 306 308 300 311 313 315 nan 317 308 301 293 289 289 289 289 291 292 291 289 292 297 297 nan nan nan nan nan nan nan nan nan nan nan nan nan nan nan nan nan nan nan nan nan nan nan nan nan nan nan nan nan nan nan nan nan
271 273 274 274 276 280 284 288 290 291 294 298 302 302 300 301 300 302 302 301 303 304 305 304 304 304 304 304 302 294 285 277 285 294 306 312 315 317 311 289 283 285 286 289 292 291 291 291 287 294 nan nan nan nan nan nan nan nan nan nan nan nan nan nan nan nan nan nan nan nan nan nan nan nan nan nan nan nan nan nan nan nan nan nan nan
272 271 271 271 274 279 283 286 289 289 293 297 298 297 298 299 299 300 299 300 302 305 305 304 304 305 305 301 293 293 297 289 280 289 300 306 308 310 305 290 287 285 287 289 290 292 290 287 291 293 294 nan nan nan nan nan nan nan nan nan nan nan nan nan nan nan nan nan nan nan nan nan nan nan nan nan nan nan nan nan nan nan nan nan nan
270 270 271 274 277 281 284 287 288 289 292 295 297 297 300 300 299 299 299 300 303 305 306 306 305 304 301 300 298 299 305 294 292 297 303 307 307 304 298 296 292 283 287 289 282 281 283 288 293 294 296 nan nan nan nan nan nan nan nan nan nan nan nan nan nan nan nan nan nan nan nan nan nan nan nan nan nan nan nan nan nan nan nan nan nan
268 270 272 276 280 283 287 287 288 290 292 294 297 298 300 300 298 297 298 300 303 305 306 305 306 304 303 302 299 305 300 294 296 298 301 302 301 294 287 284 285 281 nan 280 283 288 290 293 295 nan nan nan nan nan nan nan nan nan nan nan nan nan nan nan nan nan nan nan nan nan nan nan nan nan nan nan nan nan nan nan nan nan nan nan nan
269 271 273 276 280 284 286 286 287 289 293 294 296 298 298 297 296 297 298 301 303 304 305 304 304 300 303 300 302 300 296 295 298 299 300 301 nan nan nan nan nan 283 286 288 290 291 295 nan nan nan nan nan nan nan nan nan nan nan nan nan nan nan nan nan nan nan nan nan nan nan nan nan nan nan nan nan nan nan nan nan nan nan nan nan nan
273 275 278 279 280 282 284 284 288 290 292 294 295 297 296 297 296 297 299 299 301 301 301 297 297 301 303 299 302 299 297 300 301 302 301 nan nan nan nan nan 291 291 292 293 293 nan nan nan nan nan nan nan nan nan nan nan nan nan nan nan nan nan nan nan nan nan nan nan nan nan nan nan nan nan nan nan nan nan nan nan nan nan nan nan nan
279 282 282 281 278 278 279 284 288 289 286 282 280 280 284 289 294 291 279 280 284 296 300 296 294 296 297 299 299 300 299 303 306 297 304 305 nan nan nan 299 297 297 290 nan 296 294 nan nan nan nan nan nan nan nan nan nan nan nan nan nan nan nan nan nan nan nan nan nan nan nan nan nan nan nan nan nan nan nan nan nan nan nan nan nan nan
280 280 281 280 280 281 282 286 288 289 289 287 286 284 280 279 277 285 286 279 278 279 287 290 293 296 299 300 302 303 304 300 291 289 294 291 290 290 287 287 288 291 290 nan 285 296 299 nan nan nan nan nan nan nan nan nan nan nan nan nan nan nan nan nan nan nan nan nan nan nan nan nan nan nan nan nan nan nan nan nan nan nan nan nan nan
277 277 279 279 279 282 285 286 287 285 285 287 288 288 289 282 275 274 279 283 284 282 283 288 292 288 295 299 292 280 283 291 293 293 291 290 289 287 286 nan nan nan 284 290 nan nan nan nan nan nan nan nan nan nan nan nan nan nan nan nan nan nan nan nan nan nan nan nan nan nan nan nan nan nan nan nan nan nan nan nan nan nan nan nan nan
276 277 278 276 276 281 282 283 284 283 283 285 288 290 290 289 285 278 278 281 281 281 282 282 282 283 283 288 291 287 283 287 292 292 291 289 288 nan nan nan 281 281 282 nan 290 292 nan nan nan nan nan nan nan nan nan nan nan nan nan nan nan nan nan nan nan nan nan nan nan nan nan nan nan nan nan nan nan nan nan nan nan nan nan nan nan
276 275 274 277 277 277 279 280 281 284 286 289 291 291 292 292 294 292 285 282 282 282 282 282 282 283 286 286 284 286 290 292 290 289 289 nan nan nan nan 280 280 282 286 nan nan nan nan nan nan nan nan nan nan nan nan nan nan nan nan nan nan nan nan nan nan nan nan nan nan nan nan nan nan nan nan nan nan nan nan nan nan nan nan nan nan
272 272 275 277 277 278 279 282 284 285 288 290 291 292 294 295 296 295 294 294 291 288 285 282 282 284 280 283 288 289 290 290 289 289 nan nan nan nan nan nan nan nan nan nan nan nan nan nan nan nan nan nan nan nan nan nan nan nan nan nan nan nan nan nan nan nan nan nan nan nan nan nan nan nan nan nan nan nan nan nan nan nan nan nan nan
270 271 274 275 276 278 279 281 286 287 288 290 291 292 293 295 294 295 296 298 299 299 298 292 nan nan 285 284 283 286 nan nan nan nan nan nan nan nan nan nan nan nan nan nan nan nan nan nan nan nan nan nan nan nan nan nan nan nan nan nan nan nan nan nan nan nan nan nan nan nan nan nan nan nan nan nan nan nan nan nan nan nan nan nan nan
272 273 273 276 277 277 280 282 281 284 288 290 292 293 294 294 294 296 298 299 299 298 nan nan nan nan 283 281 283 284 nan nan nan nan nan nan nan nan nan nan nan nan nan nan nan nan nan nan nan nan nan nan nan nan nan nan nan nan nan nan nan nan nan nan nan nan nan nan nan nan nan nan nan nan nan nan nan nan nan nan nan nan nan nan nan
274 275 276 276 278 279 279 281 283 285 288 290 291 291 292 294 296 296 297 298 297 295 nan nan nan nan nan nan nan nan nan nan nan nan nan nan nan nan nan nan nan nan nan nan nan nan nan nan nan nan nan nan nan nan nan nan nan nan nan nan nan nan nan nan nan nan nan nan nan nan nan nan nan nan nan nan nan nan nan nan nan nan nan nan nan
277 278 278 279 279 280 282 284 284 285 289 290 291 292 293 295 295 296 296 296 296 294 293 nan nan nan nan nan nan nan nan nan nan nan nan nan nan nan nan nan nan nan nan nan nan nan nan nan nan nan nan nan nan nan nan nan nan nan nan nan nan nan nan nan nan nan nan nan nan nan nan nan nan nan nan nan nan nan nan nan nan nan nan nan nan
271 267 270 270 277 283 285 287 287 290 290 291 292 294 294 294 295 295 295 295 296 295 294 295 297 297 nan nan nan nan nan nan nan nan nan nan nan nan nan nan nan nan nan nan nan nan nan nan nan nan nan nan nan nan nan nan nan nan nan nan nan nan nan nan nan nan nan nan nan nan nan nan nan nan nan nan nan nan nan nan nan nan nan nan nan
275 275 273 276 280 282 285 286 288 290 290 291 291 292 292 294 295 294 294 295 296 296 296 297 298 296 nan nan nan nan nan nan nan nan nan nan nan nan nan nan nan nan nan nan nan nan nan nan nan nan nan nan nan nan nan nan nan nan nan nan nan nan nan nan nan nan nan nan nan nan nan nan nan nan nan nan nan nan nan nan nan nan nan nan nan
278 278 280 282 281 284 284 286 288 289 290 291 290 292 293 293 293 294 295 295 296 296 296 296 296 297 nan nan nan nan nan nan nan nan nan nan nan nan nan nan nan nan nan nan nan nan nan nan nan nan nan nan nan nan nan nan nan nan nan nan nan nan nan nan nan nan nan nan nan nan nan nan nan nan nan nan nan nan nan nan nan nan nan nan nan
281 281 284 284 283 285 285 287 287 287 289 290 291 293 293 293 294 295 296 296 296 296 296 295 296 293 296 nan nan nan nan nan 301 nan nan nan nan nan nan nan nan nan nan nan nan nan nan nan nan nan nan nan nan nan nan nan nan nan nan nan nan nan nan nan nan nan nan nan nan nan nan nan nan nan nan nan nan nan nan nan nan nan nan nan nan
283 283 284 284 286 286 287 287 287 290 289 290 291 290 292 293 293 293 295 296 296 297 296 296 292 nan 296 300 nan nan nan nan nan nan nan nan nan nan nan nan nan nan nan nan nan nan nan nan nan nan nan nan nan nan nan nan nan nan nan nan nan nan nan nan nan nan nan nan nan nan nan nan nan nan nan nan nan nan nan nan nan nan nan nan nan
281 282 283 285 285 285 285 284 285 286 289 289 289 291 291 292 292 293 295 296 296 296 295 296 296 295 nan nan nan nan nan nan 300 302 nan nan nan nan nan nan nan nan nan nan nan nan nan nan nan nan nan nan nan nan nan nan nan nan nan nan nan nan nan nan nan nan nan nan nan nan nan nan nan nan nan nan nan nan nan nan nan nan nan nan nan
282 282 283 284 285 286 285 287 288 287 284 286 289 288 290 291 292 294 295 295 295 295 294 295 295 296 297 nan nan nan nan nan nan nan nan nan nan nan nan nan nan nan nan nan nan nan nan nan nan nan nan nan nan nan nan nan nan nan nan nan nan nan nan nan nan nan nan nan nan nan nan nan nan nan nan nan nan nan nan nan nan nan nan nan nan
281 282 284 283 281 281 283 283 283 285 287 288 289 291 292 291 290 291 292 292 291 292 291 290 293 295 296 296 nan nan nan nan nan nan nan nan nan nan nan nan nan nan nan nan nan nan nan nan nan nan nan nan nan nan nan nan nan nan nan nan nan nan nan nan nan nan nan nan nan nan nan nan nan nan nan nan nan nan nan nan nan nan nan nan nan
276 277 277 275 278 282 283 285 287 nan 289 290 291 291 290 290 289 290 291 291 292 293 292 294 295 296 300 297 297 298 nan nan nan nan nan nan nan nan nan nan nan nan nan nan nan nan nan nan nan nan nan nan nan nan nan nan nan nan nan nan nan nan nan nan nan nan nan nan nan nan nan nan nan nan nan nan nan nan nan nan nan nan nan nan nan
274 277 278 280 282 283 285 286 285 287 287 288 288 nan 290 290 nan nan nan nan nan nan nan nan nan 286 287 nan nan nan nan nan nan nan nan nan nan nan nan nan nan nan nan nan nan nan nan nan nan nan nan nan nan nan nan nan nan nan nan nan nan nan nan nan nan nan nan nan nan nan nan nan nan nan nan nan nan nan nan nan nan nan nan nan nan
277 278 280 280 281 283 283 284 285 nan 287 288 nan nan nan nan nan nan nan nan nan nan nan nan nan nan nan nan nan nan nan nan nan nan nan nan nan nan nan nan nan nan nan nan nan nan nan nan nan nan nan nan nan nan nan nan nan nan nan nan nan nan nan nan nan nan nan nan nan nan nan nan nan nan nan nan nan nan nan nan nan nan nan nan nan
277 278 279 nan 281 281 282 283 nan 287 nan nan nan nan nan nan nan nan nan nan nan nan nan nan nan nan nan nan nan nan nan nan nan nan nan nan nan nan nan nan nan nan nan nan nan nan nan nan nan nan nan nan nan nan nan nan nan nan nan nan nan nan nan nan nan nan nan nan nan nan nan nan nan nan nan nan nan nan nan nan nan nan nan nan nan
nan nan 278 280 283 285 286 nan nan nan nan nan nan nan nan nan nan nan nan nan nan nan nan nan nan nan nan nan nan nan nan nan nan nan nan nan nan nan nan nan nan nan nan nan nan nan nan nan nan nan nan nan nan nan nan nan nan nan nan nan nan nan nan nan nan nan nan nan nan nan nan nan nan nan nan nan nan nan nan nan nan nan nan nan nan